Regional Weather Roundup
Issued by NWS

Home | Current Version | Previous Version | Text Only | Print | Product List | Glossary On
Versions: 1 2 3 4 5 6 7 8 9 10 11 12 13 14 15 16 17 18 19 20 21 22 23 24 25 26 27 28 29 30 31 32 33 34 35 36 37 38 39 40 41 42 43 44 45 46 47 48 49 50
000
ASUS43 KDTX 270310
RWRMI
MICHIGAN HOURLY REGIONAL WEATHER ROUNDUP
NATIONAL WEATHER SERVICE DETROIT/PONTIAC MI
1100 PM EDT SAT MAY 26 2018

NOTE: "FAIR" INDICATES FEW OR NO CLOUDS BELOW 12,000 FEET WITH NO
SIGNIFICANT WEATHER AND/OR OBSTRUCTION TO VISIBILITY.

MIZ047>049-052>055-059>063-066>070-074>076-081>083-270400-
SOUTHEAST LOWER MICHIGAN

CITY           SKY/WX    TMP DP  RH WIND       PRES   REMARKS
ADRIAN         FAIR      70  67  90 CALM      29.85R
ALMA           FAIR      68  63  85 SW7       29.83S
ANN ARBOR      FAIR      68  65  90 E3        29.85R
BAD AXE        RAIN      73  63  72 SW8       29.84R
CARO           LGT RAIN  71  65  80 CALM      29.82F
DETROIT CITY   FAIR      70  62  76 SE3       29.85R
DETROIT        FAIR      69  62  78 E3        29.86R
FLINT          TSTM      66  61  84 SW6       29.86R
GROSSE ILE     FAIR      65  64  94 CALM      29.85R
HILLSDALE      FAIR      68  63  83 SE5       29.85R
HOWELL         FAIR      71  66  85 N7        29.88R

CITY           SKY/WX    TMP DP  RH WIND       PRES   REMARKS
JACKSON        FAIR      70  67  90 CALM      29.85R
LAMBERTVILLE     N/A     69  66  91 CALM      29.85R FOG
LANSING        FAIR      71  64  78 NE6       29.85R
LAPEER         FAIR      68  61  77 CALM      29.86R
MASON          FAIR      72  67  83 S3        29.85R
MONROE         FAIR      69  67  93 CALM      29.84R
MT. CLEMENS    PTCLDY    65  65 100 S6        29.85R
PONTIAC        FAIR      72  65  78 CALM      29.85R
PORT HOPE        N/A     60  55  83 CALM      29.80R
PORT HURON     FAIR      63  61  94 CALM      29.85S FOG
TRI CITIES     FAIR      70  62  76 CALM      29.81R
MIDLAND        FAIR      63  62  95 CALM      29.82R
TROY           FAIR      73  61  67 CALM      29.87S
SAGINAW HB     FAIR      68  63  83 S6        29.79F
$$
MIZ043>046-050>051-056>058-064>065-071>073-077>080-270400-
SOUTHWEST LOWER MICHIGAN

CITY           SKY/WX    TMP DP  RH WIND       PRES   REMARKS
BATTLE CREEK   FAIR      72  61  68 CALM      29.84R
BENTON HARBOR  FAIR      66  60  81 CALM      29.81R
BIG RAPIDS     FAIR      64  61  87 CALM      29.84R
COLDWATER      FAIR      71  60  69 CALM      29.84R
FREMONT        FAIR      65  62  89 E3        29.83R
HOLLAND        FAIR      67  61  81 CALM      29.82R
GRAND RAPIDS   FAIR      68  61  78 SE5       29.83R
IONIA          FAIR      71  62  74 E3        29.84R
KALAMAZOO      FAIR      71  59  65 CALM      29.83R
LUDINGTON      FAIR      61  60  95 CALM      29.80S
MARSHALL       FAIR      68  63  82 CALM      29.84R
MOUNT PLEASANT FAIR      66  64  93 W3        29.82R
MUSKEGON       FAIR      64  59  83 CALM      29.82R
SOUTH HAVEN    FAIR      65  60  82 CALM      29.82R
$$
MIZ016>042-270400-
NORTHERN LOWER MICHIGAN

CITY           SKY/WX    TMP DP  RH WIND       PRES   REMARKS
ALPENA         FAIR      56  56 100 SE3       29.83S
BEAVER ISLAND  FAIR      60  57  89 N3        29.79R
BELLAIRE       FAIR      70  62  76 S5        29.78R
CADILLAC       FAIR      63  62  97 CALM      29.83F
CHARLEVOIX     FAIR      66  60  82 CALM      29.80S
FRANKFORT      FAIR      65  65  99 CALM      29.76F
GAYLORD        FAIR      65  65 100 SE9       29.81F
GRAYLING       FAIR      65  61  87 S8        29.81S
HARBOR SPRINGS FAIR      67  65  93 E6        29.78R
HOUGHTON LAKE  FAIR      61  60  97 CALM      29.85R FOG
MANISTEE       FAIR      65  60  84 CALM      29.81R
OSCODA         FAIR      59  55  86 W3        29.83S
PELLSTON       FAIR      69  63  81 SE6       29.79R
ROGERS CITY    FAIR      64  58  80 S7        29.82S
TRAVERSE CITY  FAIR      69  64  84 CALM      29.75F
$$
MIZ007>008-015-270400-
EASTERN UPPER MICHIGAN

CITY           SKY/WX    TMP DP  RH WIND       PRES   REMARKS
KINROSS        FAIR      60  58  92 SE16      29.80R
MACKINAC ISLAN FAIR      58  57  99 E5        29.79S
NEWBERRY       FAIR      59  58  97 E9        29.76S
S. S. MARIE    FAIR      62  59  90 SE7       29.80R
MUNISING         N/A     65  64  97 S7        29.72R
$$
MIZ004>006-011>014-085-270400-
CENTRAL UPPER MICHIGAN

CITY           SKY/WX    TMP DP  RH WIND       PRES   REMARKS
MANISTIQUE     FAIR      56  55  94 E5        29.78R
ESCANABA       FOG       59  57  94 CALM      29.75S VSB 3/4
MENOMINEE      FAIR      65  59  81 E3        29.77R
SAWYER-GWINN   MOCLDY    64  60  87 S6        29.76S
$$
MIZ001>003-009>011-084-270400-
WESTERN UPPER MICHIGAN

CITY           SKY/WX    TMP DP  RH WIND       PRES   REMARKS
IRON MOUNTAIN  FAIR      65  61  87 CALM      29.77R
HOUGHTON       MOCLDY    62  55  77 CALM      29.73R
COPPER HARBOR    N/A     48  45  89 CALM      29.74R
IRONWOOD       FAIR      63  60  90 SW5       29.76R
$$

ABBREVIATIONS USED IN REMARKS
   TC - TEMPERATURE IN CELSIUS
  WCI - WIND CHILL INDEX
   HX - HEAT INDEX
  VSB - VISIBILITY





USA.gov is the U.S. government's official web portal to all federal, state and local government web resources and services.